Tracking 18852 objects as of 24-Nov-2017
HD Live streaming from Space Station
objects crossing your sky now

CZ-4B DEB

Track CZ-4B DEB now!
10-day predictions


NORAD ID: 28438
Int'l Code: 2002-024E
Perigee: 781.3 km
Apogee: 814.1 km
Inclination: 98.5 °
Period: 100.7 minutes
Semi major axis: 7168 km
RCS: 0.0024 m2 (small)
Launch date: May 15, 2002
Source: People's Republic of China (PRC)
Launch site: Taiyaun Space Center, China (TSC)

Note: This is SATELLITE DEBRIS
aabbcc
Your satellite tracking list
Your tracking list is empty




NASA's NSSDC Master Catalog

Two Line Element Set (TLE):
1 28438U 02024E   17327.20236250 +.00000878 +00000-0 +35357-3 0  9992
2 28438 098.4613 317.7817 0022874 040.3201 319.9673 14.30351809805550
Source of the keplerian elements: AFSPC